ARIANE 44L DEB, 27673

Orbit data source: Space-Track

ARIANE 44L DEB, 27673 is space debris in HEO originally from a launch on Tue, 29 Oct 1991 UTC launched from the French Guiana (FRGUI). Debris objects in space refer to the collection of defunct objects orbiting the Earth. Examples of debris include non-operational satellites, rocket bodies, and fragments generated from explosions, collisions, or faulty payload assembly.

Loading next visibility...
Identifier
27673, 1991-075J
Orbit
HEO
Country
Flag of FRFR
Related business
Manufacturer
Unknown
Mission
Spacecraft
Bus & Motor
Unknown
Mass
Unknown
Launch date (UTC)
1991-10-29 (35 years ago)
Launch vehicle
Unknown
Launch site
French Guiana (FRGUI)
Object type
Payload
Rocket body
Debris
Shape & HBR
Unknown shape, 0.5 m
Radar Cross Section
Medium (>0.1 m² and <1 m²)

Expand to show TLE details & history
Last TLE update: 2 days ago

TLE from 2 days ago
0 ARIANE 44L DEB
1 27673U 91075J   26171.17909743 -.00000237  00000-0 -20507-2 0  9994
2 27673   6.8552  48.5632 6640442 299.6615  10.6181  2.89119661122448
Epoch: 2026-06-20T04:17Z
TLE epoch observation values (Epoch: 2026-06-20T04:17:54.017Z)
Latitude
0.00034°
Longitude
75.56751°
Altitude
2,390.122 km
Speed
8.471 km/s
True Right ascension
03h 13m 45s
True Declination
0° 00' 01"
Sunlit
Object was in daylight at epoch
Visualization orbit readout
Latitude
Unknown
Longitude
Unknown
Altitude
Unknown
Speed
Unknown
Apparent Right ascension
Unknown
Apparent Declination
Unknown
Sunlit
N/A
Visualization observer readout
Local Sidereal Time
23:07:56
Azimuth
Unknown
Elevation
Unknown
Doppler factor
Unknown
Orbital elements
Apogee altitude
28,265.11 km
Perigee altitude
616.028 km
Semi-major axis
20,818.706 km
Eccentricity
0.66404
Inclination
6.8552°
RAAN
48.5632°
Arg. of periapsis
299.6615°
True anomaly
60.11714°
Mean anomaly
10.6181°
Eccentric anomaly
29.1516°
Mean motion
0.72254 °/min
Orbital period
498.24 mins
BSTAR
-0.0020507
Loading maneuver chart data...
Computing Atmospheric mass density...
Loading historical data...
Loading historical data...
Loading historical data...
Loading historical data...
Loading historical data...
Loading historical data...
Loading historical data...

Documentation

Showing up to 5 results
|